TITAN 3C TRANSTAGE DEB, 1642

Orbit data source: Space-Track

TITAN 3C TRANSTAGE DEB, 1642 is space debris in LEO originally from a launch on Fri, 15 Oct 1965 UTC launched from the Air Force Eastern Test Range (AFETR). Debris objects in space refer to the collection of defunct objects orbiting the Earth. Examples of debris include non-operational satellites, rocket bodies, and fragments generated from explosions, collisions, or faulty payload assembly.

Loading next visibility...
Identifier
1642, 1965-082D
Orbit
LEO
Country
Flag of USUS
Related business
Manufacturer
Unknown
Mission
Spacecraft
Bus & Motor
Unknown
Mass
Unknown
Launch date (UTC)
1965-10-15 (61 years ago)
Launch vehicle
Unknown
Launch site
Air Force Eastern Test Range (AFETR)
Object type
Payload
Rocket body
Debris
Shape & HBR
Unknown shape, 1.5 m
Radar Cross Section
Large (>1 m²)

Expand to show TLE details & history
Last TLE update: 15 hours ago

TLE from 15 hours ago
0 TITAN 3C TRANSTAGE DEB
1  1642U 65082D   26125.29483216  .00001071  00000-0  11868-3 0  9991
2  1642  32.0928  88.3822 0023354 292.5879  67.2301 14.84445562231209
Epoch: 2026-05-05T07:04Z
TLE epoch observation values (Epoch: 2026-05-05T07:04:33.498Z)
Latitude
-0.00005°
Longitude
119.07082°
Altitude
607.672 km
Speed
7.561 km/s
True Right ascension
05h 53m 31s
True Declination
0° 00' 00"
Sunlit
Object was in daylight at epoch
Visualization orbit readout
Latitude
Unknown
Longitude
Unknown
Altitude
Unknown
Speed
Unknown
Apparent Right ascension
Unknown
Apparent Declination
Unknown
Sunlit
N/A
Visualization observer readout
Local Sidereal Time
06:10:34
Azimuth
Unknown
Elevation
Unknown
Doppler factor
Unknown
Orbital elements
Apogee altitude
635.305 km
Perigee altitude
602.623 km
Semi-major axis
6,997.101 km
Eccentricity
0.00234
Inclination
32.0928°
RAAN
88.3822°
Arg. of periapsis
292.5879°
True anomaly
67.47714°
Mean anomaly
67.2301°
Eccentric anomaly
67.35359°
Mean motion
3.70822 °/min
Orbital period
97.08 mins
BSTAR
0.00011868

Documentation

Showing up to 5 results
|